Regional Weather Roundup
Issued by NWS

Home | Current Version | Previous Version | Graphics & Text | Print | Product List | Glossary On
Versions: 1 2 3 4 5 6 7 8 9 10 11 12 13 14 15 16 17 18 19 20 21 22 23 24 25 26 27 28 29 30 31 32 33 34 35 36 37 38 39 40 41 42 43 44 45 46 47 48 49 50
000
ASUS43 KIND 060659
RWRIN

WEATHER ROUNDUP FOR INDIANA
NATIONAL WEATHER SERVICE INDIANAPOLIS IN
200 AM EST TUE DEC 06 2016

NOTE: "FAIR" INDICATES FEW OR NO CLOUDS BELOW 12,000 FEET WITH NO
SIGNIFICANT WEATHER AND/OR OBSTRUCTIONS TO VISIBILITY.

* - STATION DOES NOT REPORT WEATHER SUCH AS PRECIPITATION OR FOG.

+ - STATION NOT QUALITY CONTROLLED BY THE NATIONAL WEATHER SERVICE.
    USE DATA WITH CAUTION...ESPECIALLY DEWPOINT AND RELATIVE
    HUMIDITY OBSERVATIONS.

INZ001>003-010>013-019-020-060800-
NORTHWEST INDIANA

CITY           SKY/WX    TMP DP  RH WIND       PRES   REMARKS

$$

LMZ046-743>745-060800-
SOUTHERN LAKE MICHIGAN

STATION/POSITION TIME  TEMP    WIND        PRES    WAVE
                       AIR SEA DIR/SP/G            HT
                 (UTC) (F)     (DEG/KT/KT) (MB)    (FT)
BURNS HARBOR     0640   34     130/ 12/ 20 1012.9F

$$

INZ004-005-014>016-021>024-060800-
NORTH CENTRAL INDIANA

CITY           SKY/WX    TMP DP  RH WIND       PRES   REMARKS
GOSHEN         CLEAR     27  24  89 E6        29.93F FOG     WCI  20
SOUTH BEND     CLEAR     29  28  96 E7        29.93F FOG     WCI  22

$$

INZ006>009-017-018-025>027-060800-
NORTHEAST INDIANA

CITY           SKY/WX    TMP DP  RH WIND       PRES   REMARKS
ANGOLA *+      CLEAR     28  27  93 E8        29.93F WCI  20
FORT WAYNE     PTCLDY    27  24  89 NE8       29.92F WCI  19
KENDALLVILLE + CLEAR     30  28  92 E7        29.94S WCI  23

$$

INZ028-029-035-036-043>045-051>053-060800-
WEST CENTRAL INDIANA

CITY           SKY/WX    TMP DP  RH WIND       PRES   REMARKS
CRAWFORDSVL +  CLOUDY    33  33 100 E12       29.84F WCI  25
GREENCASTLE +  CLOUDY    36  34  93 E7        29.83F
LAFAYETTE      CLOUDY    32  31  96 E8        29.86F WCI  25
TERRE HAUTE    CLOUDY    37  33  85 NE7       29.82F

$$

INZ030>032-037>040-046>048-054>057-064-065-060800-
CENTRAL INDIANA

CITY           SKY/WX    TMP DP  RH WIND       PRES   REMARKS
GREENWOOD *+   CLOUDY    37  33  87 E8        29.83F
INDIANAPOLIS   CLOUDY    37  32  82 NE9       29.83F
-EAGLE CREEK   CLOUDY    36  31  82 NE6       29.84F
KOKOMO +       PTCLDY    32  31  96 E10       29.88F FOG     WCI  24
SHELBYVILLE    CLOUDY    37  31  78 E13       29.82F

$$

INZ033-034-041-042-049-050-058-059-060800-
EAST CENTRAL INDIANA

CITY           SKY/WX    TMP DP  RH WIND       PRES   REMARKS
MUNCIE         CLOUDY    33  29  85 E10       29.87F WCI  25

$$

INZ060-061-067>069-081>083-085>088-060800-
SOUTHWEST INDIANA

CITY           SKY/WX    TMP DP  RH WIND       PRES   REMARKS
EVANSVILLE     CLOUDY    43  37  79 NE7       29.77F
HUNTINGBURG *+ LGT RAIN  43  37  79 E6        29.78S

$$

INZ062-063-066-070>080-084-089>092-060800-
SOUTH CENTRAL AND SOUTHEAST INDIANA

CITY           SKY/WX    TMP DP  RH WIND       PRES   REMARKS
BLOOMINGTON    MOCLDY    40  33  76 E8        29.81F
MADISON *+     CLOUDY    41  34  75 E8        29.82F
SEYMOUR +      CLOUDY    41  36  81 E5        29.81F

$$





USA.gov is the U.S. government's official web portal to all federal, state and local government web resources and services.